Location: Glencliff
(36.1226°N, 86.7183°W)
Time: 10:43:38
(UTC+00:00)

Cosmos 1697 Rocket - Pass Details

Date: 25 August 2019
Orbit: 831 x 845 km, 71.0° (Epoch: 15 September)

Event Time Altitude Azimuth Distance (km) Brightness Sun altitude
Rises 02:38:18 0° 341° (NNW) 3,410 6.7 -25.0°
Reaches altitude 10° 02:40:48 10° 345° (NNW) 2,471 5.8 -25.4°
Enters shadow 02:46:25 63° 66° (ENE) 940 2.7 -26.3°
